Weather Roundup
Issued by NWS Chicago, IL

Home | Current Version | Previous Version | Graphics & Text | Print | Product List | Glossary On
Versions: 1 2 3 4 5 6 7 8 9 10 11 12 13 14 15 16 17 18 19 20 21 22 23 24 25 26 27 28 29 30 31 32 33 34 35 36 37 38 39 40 41 42 43 44 45 46 47 48 49 50
000
NZUS59 KLOT 220708
HRRLOT

CHICAGO AREA WEATHER ROUNDUP
NATIONAL WEATHER SERVICE CHICAGO/ROMEOVILLE IL
200 AM CDT TUE AUG 22 2017

NOTE: "FAIR" INDICATES FEW OR NO CLOUDS BELOW 12,000 FEET WITH NO
SIGNIFICANT WEATHER AND/OR OBSTRUCTIONS TO VISIBILITY.

* THESE STATIONS ARE NOT UNDER NWS QUALITY CONTROL. THEY ALSO MAY NOT
  REPORT WEATHER SUCH AS PRECIPITATION OR FOG.

ILZ005-006-012>014-019>023-220800-
NORTHEAST ILLINOIS

CITY           SKY/WX    TMP DP  RH WIND       PRES   REMARKS
OHARE          CLOUDY    73  68  84 S9        29.83S
MIDWAY         CLOUDY    74  70  87 S15G22    29.83F
AURORA         CLOUDY    72  71  97 S9        29.85S
LANSING*       CLOUDY    72  68  88 S15       29.86F
JOLIET*        CLOUDY    73  72  96 S7        29.86S
WAUKEGAN       CLOUDY    74  70  87 SW12      29.82F
DUPAGE AIRPORT CLOUDY    72  71  97 S12G24    29.84S
WHEELING       MOCLDY    74  70  87 SW10      29.85S
MORRIS*        CLOUDY    73  69  90 SW13G20   29.85R
LEWIS AIRPORT* MOCLDY    71  68  89 SW13      29.85F
NORTHERLY ISL    N/A     73  68  84 S15         N/A
$$

WIZ051-052-058>065-066-070>072-220800-
SOUTHEAST WISCONSIN

CITY           SKY/WX    TMP DP  RH WIND       PRES   REMARKS
MILWAUKEE      MOCLDY    75  70  84 SW10      29.82R
KENOSHA*       CLOUDY    73  69  87 SW9       29.83S
RACINE*        CLOUDY    74  70  87 SW8       29.84R
WAUKESHA       LGT RAIN  70  68  94 W7        29.84S
WEST BEND      CLOUDY    72  68  88 W8        29.82F
$$

INZ001>003-010>013-019-020-220800-
NORTHWEST INDIANA

CITY           SKY/WX    TMP DP  RH WIND       PRES   REMARKS
GARY*          CLOUDY    74  71  91 S12G18    29.85F
MICHIGAN CITY* NOT AVBL
RENSSELAER*    NOT AVBL
VALPARAISO     LGT RAIN  73  71  93 S12       29.90F
$$

LMZ740>746-220800-
SOUTHERN LAKE MICHIGAN

STATION/POSITION TIME  SKY/WX   TEMP WIND        PRES    VSBY
                                AIR  DIR/SP/G
                 (UTC)          (F)  (DEG/KT/KT) (MB)    (MI)
HARRISON CRIB    0630            74  210/ 26/ 28   N/A
BURNHAM HARBOR   NOT AVBL
CALUMET HARBOR   0648                190/  9/ 18 1010.0F
BURNS HARBOR     0640            72  190/ 17/ 22 1011.9F
MICHIGAN CITY    0630            72  160/ 16/ 20   N/A
$$

ABBREVIATIONS USED IN REMARKS
   TC - TEMPERATURE IN CELSIUS
  WCI - WIND CHILL INDEX
   HX - HEAT INDEX
  VSB - VISIBILITY
$$




USA.gov is the U.S. government's official web portal to all federal, state and local government web resources and services.